Regional Weather Roundup
Issued by NWS Kansas City/Pleasant Hill, MO

Home | Current Version | Previous Version | Text Only | Print | Product List | Glossary On
Versions: 1 2 3 4 5 6 7 8 9 10 11 12 13 14 15 16 17 18 19 20 21 22 23 24 25 26 27 28 29 30 31 32 33 34 35 36 37 38 39 40 41 42 43 44 45 46 47 48 49 50
000
ASUS43 KEAX 300511
RWREAX

WEATHER ROUNDUP FOR EASTERN KANSAS AND NORTHWEST MISSOURI
NATIONAL WEATHER SERVICE KANSAS CITY/PLEASANT HILL MO
1100 PM CST THU JAN 29 2015

KSZ040-057-103>105-MOZ028-029-037-043-300600-
...KANSAS CITY METROPOLITAN AREA...

CITY           SKY/WX    TMP DP  RH WIND       PRES   REMARKS
K.C. INTL      CLEAR     28  22  78 N7        30.52R WCI  21
K.C. DOWNTOWN  CLEAR     30  23  75 CALM      30.53R
LEES SUMMIT    CLEAR     30  22  72 N6        30.51S WCI  24
OLATHE - IXD   CLEAR     25  21  85 NW7       30.52S WCI  17
OLATHE - OJC   CLEAR     31  24  75 N5        30.50S WCI  26
LAWRENCE       CLEAR     22  18  85 CALM      30.54R

$$

MOZ001>008-011>017-020>025-030>033-038>040-044>046-053-054-300600-
...NORTHERN AND CENTRAL MISSOURI...

CITY           SKY/WX    TMP DP  RH WIND       PRES   REMARKS
ST. JOSEPH     CLEAR     21  18  88 N5        30.54S WCI  15
MOSBY          CLEAR     28  23  80 CALM      30.52S
WARRENSBURG    CLEAR     30  25  80 NW5       30.52R WCI  25
WHITEMAN AFB   CLEAR     29  23  77 N7        30.51R WCI  22
CLINTON        CLEAR     32  27  80 N7        30.52R WCI  26
SEDALIA        PTCLDY    33  24  69 N10       30.52R WCI  25
WARSAW         NOT AVBL
MARSHALL       PTCLDY    34  27  75 W3        30.53R
CHILLICOTHE      N/A     30  23  75 NW3       30.53R
MOBERLY        PTCLDY    30  21  69 NW9       30.49R WCI  22
KIRKSVILLE     CLEAR     28  21  75 NW6       30.48R WCI  22

$$

MOZ041-047>049-056>058-063>065-088>090-097-300600-
...EASTERN AND SOUTHERN MISSOURI...

CITY           SKY/WX    TMP DP  RH WIND       PRES   REMARKS
ST. LOUIS INTL CLOUDY    37  25  61 NW12      30.43R WCI  29
SPIRIT OF STL  CLOUDY    37  25  61 NW7       30.43R WCI  32
COLUMBIA       CLOUDY    33  24  69 NW12      30.47R WCI  24
JEFFERSON CITY CLOUDY    37  24  59 N10       30.49R WCI  30
MEXICO         MOCLDY    34  28  80 NW13      30.46R WCI  25
HANNIBAL       PTCLDY    32  19  59 NW10      30.46R WCI  24
ROLLA          CLOUDY    35  24  64 NW12      30.43R WCI  27
LEBANON        MOCLDY    32  25  74 N3        30.46R
OSAGE BEACH    CLOUDY    36  23  60 NW6G16    30.48R WCI  31
SPRINGFIELD    CLEAR     28  23  81 N7        30.47R WCI  21
BRANSON        CLEAR     32  27  80 NW9       30.47R WCI  24
NEVADA         CLEAR     30  25  80 W5        30.53S WCI  25
JOPLIN         CLEAR     31  25  78 N6        30.51S WCI  25
WEST PLAINS    PTCLDY    33  25  72 NW6       30.42R WCI  28

$$

IAZ060-094-KSZ022-034>040-054-083-096-NEZ052-066-093-300600-
...KANSAS...SOUTHEAST NEBRASKA AND IOWA...

CITY           SKY/WX    TMP DP  RH WIND       PRES   REMARKS
TOPEKA         CLEAR     25  23  92 NW3       30.54S
MANHATTAN      CLEAR     23  20  88 SW3       30.53R
EMPORIA        CLEAR     28  23  81 CALM      30.51S
CHANUTE        CLEAR     30  25  81 NW3       30.53R
WICHITA        PTCLDY    30  22  72 N6        30.52S WCI  24
OMAHA          PTCLDY    28  22  78 N9        30.54S WCI  19
LINCOLN        CLEAR     24  20  84 N3        30.55S
FALLS CITY     CLEAR     24  19  81 NW5       30.54R WCI  18
LAMONI         PTCLDY    28  21  75 NW9       30.49R WCI  19
DES MOINES     CLEAR     27  19  72 N13       30.51R WCI  16

$$




USA.gov is the U.S. government's official web portal to all federal, state and local government web resources and services.